CW9461 Weather Reports


Display with metric or nautical units.
time (UTC)temp
F
wind
direction
speed
MPH
gust
MPH
rain 1hr
in
rain 24hr
in
rain mn
in
humidity
%
barometer
mb
20260504201105 63 240 4.0 7.0 0.00 0.00 0.00 59 1005.7
20260504200604 63 289 3.0 6.0 0.00 0.00 0.00 59 1005.8
20260504200105 63 238 4.0 8.0 0.00 0.00 0.00 59 1005.8
20260504195104 63 271 2.0 6.0 0.00 0.00 0.00 58 1005.8
20260504194605 63 279 3.0 8.0 0.00 0.00 0.00 58 1006.0
20260504193604 63 272 3.0 8.0 0.00 0.00 0.00 60 1005.8
20260504193105 63 265 3.0 7.0 0.00 0.00 0.00 61 1005.8
20260504192605 62 272 3.0 7.0 0.00 0.00 0.00 62 1005.8
20260504192105 62 242 3.0 6.0 0.00 0.00 0.00 62 1005.8
20260504191105 62 255 3.0 6.0 0.00 0.00 0.00 61 1006.1
20260504190606 62 282 3.0 7.0 0.00 0.00 0.00 62 1006.1
20260504190104 62 273 3.0 7.0 0.00 0.00 0.00 62 1006.1
20260504185605 62 261 2.0 6.0 0.00 0.00 0.00 63 1006.1
20260504185104 61 292 3.0 6.0 0.00 0.00 0.00 64 1006.1
20260504184605 61 330 2.0 6.0 0.00 0.00 0.00 65 1006.1
20260504184106 61 307 2.0 6.0 0.00 0.00 0.00 66 1006.1
20260504183605 61 240 4.0 8.0 0.00 0.00 0.00 67 1006.1
20260504182606 61 299 3.0 6.0 0.00 0.00 0.00 67 1006.1
20260504182105 61 297 2.0 7.0 0.00 0.00 0.00 67 1006.1
20260504181606 61 268 4.0 8.0 0.00 0.00 0.00 67 1006.1
20260504180605 61 287 3.0 8.0 0.00 0.00 0.00 67 1006.1
20260504180104 61 257 3.0 6.0 0.00 0.00 0.00 67 1006.1
20260504175605 61 282 3.0 10.0 0.00 0.00 0.00 67 1006.1
20260504175104 61 264 6.0 12.0 0.00 0.00 0.00 67 1006.1
20260504174604 61 255 5.0 8.0 0.00 0.00 0.00 67 1006.1
20260504174104 61 291 4.0 7.0 0.00 0.00 0.00 67 1006.0
20260504173604 61 273 5.0 8.0 0.00 0.00 0.00 67 1006.1
20260504173105 61 270 3.0 7.0 0.00 0.00 0.00 67 1006.1
20260504172604 62 300 3.0 10.0 0.00 0.00 0.00 67 1005.8
20260504172105 62 281 4.0 9.0 0.00 0.00 0.00 67 1005.8
20260504171605 61 283 4.0 10.0 0.00 0.00 0.00 68 1005.8
20260504171106 61 266 3.0 12.0 0.00 0.00 0.00 69 1005.8
20260504170605 61 258 5.0 10.0 0.00 0.00 0.00 68 1005.8
20260504170104 61 276 5.0 9.0 0.00 0.00 0.00 67 1005.8
20260504151104 58 153 0.0 3.0 0.00 0.00 0.00 82 1005.8
20260504150604 57 154 1.0 6.0 0.00 0.00 0.00 83 1005.8
20260504141104 52 67 1.0 2.0 0.00 0.00 0.00 90 1005.4
20260504140605 52 90 0.0 2.0 0.00 0.00 0.00 90 1005.4
20260504140104 52 90 0.0 1.0 0.00 0.00 0.00 90 1005.4
20260504130605 51 112 0.0 0.0 0.00 0.00 0.00 91 1005.0
20260504130104 51 112 0.0 0.0 0.00 0.00 0.00 91 1004.7
20260504120104 52 157 0.0 0.0 0.00 0.00 0.00 91 1005.1
20260504110604 52 135 0.0 0.0 0.00 0.00 0.00 90 1005.1
20260504090104 52 157 0.0 0.0 0.00 0.00 0.00 87 1005.1
20260504081604 53 157 0.0 0.0 0.00 0.00 0.00 86 1005.4
20260504081104 53 157 0.0 0.0 0.00 0.00 0.00 86 1005.4
20260504070104 53 112 0.0 0.0 0.00 0.00 0.00 85 1005.4
20260504060105 54 191 1.0 5.0 0.00 0.00 0.00 81 1005.1
20260504050605 54 180 0.0 3.0 0.00 0.00 0.00 81 1004.7
20260504050105 54 287 1.0 3.0 0.00 0.00 0.00 81 1004.7
20260504045605 54 102 0.0 5.0 0.00 0.00 0.00 80 1004.7
20260504045107 55 132 0.0 3.0 0.00 0.00 0.00 80 1004.7
20260504044605 55 160 1.0 2.0 0.00 0.00 0.00 79 1004.7
20260504043605 55 98 0.0 2.0 0.00 0.00 0.00 79 1004.4
20260504043106 55 115 0.0 3.0 0.00 0.00 0.00 78 1004.4
20260504042606 55 157 0.0 2.0 0.00 0.00 0.00 78 1004.4
20260504042105 55 102 1.0 5.0 0.00 0.00 0.00 77 1004.4
20260504041606 55 129 0.0 3.0 0.00 0.00 0.00 77 1004.4
20260504041106 55 135 1.0 2.0 0.00 0.00 0.00 77 1004.1
20260504040605 55 138 2.0 3.0 0.00 0.00 0.00 76 1004.4
20260504035105 56 145 2.0 5.0 0.00 0.00 0.00 75 1004.4
20260504034605 56 155 2.0 6.0 0.00 0.00 0.00 74 1004.4
20260504034105 56 123 0.0 3.0 0.00 0.00 0.00 74 1004.1
20260504033605 56 173 1.0 3.0 0.00 0.00 0.00 74 1004.4
20260504033106 56 158 1.0 3.0 0.00 0.00 0.00 73 1004.1
20260504032606 57 165 1.0 5.0 0.00 0.00 0.00 73 1004.1
20260504032105 57 193 0.0 2.0 0.00 0.00 0.00 72 1004.1
20260504031605 57 112 0.0 2.0 0.00 0.00 0.00 72 1004.1
20260504031106 58 162 1.0 6.0 0.00 0.00 0.00 71 1003.8
20260504030605 58 108 1.0 7.0 0.00 0.00 0.00 69 1004.0
20260504030106 59 245 1.0 8.0 0.00 0.00 0.00 68 1003.7
20260504025105 60 126 1.0 3.0 0.00 0.00 0.00 65 1003.7
20260504024106 61 44 2.0 5.0 0.00 0.00 0.00 64 1003.4
20260504023106 62 183 1.0 5.0 0.00 0.00 0.00 62 1003.4
20260504022605 63 128 1.0 3.0 0.00 0.00 0.00 61 1003.4
20260504022107 63 155 0.0 2.0 0.00 0.00 0.00 61 1003.4
20260504021607 63 193 1.0 5.0 0.00 0.00 0.00 60 1003.4
20260504021105 64 111 1.0 6.0 0.00 0.00 0.00 59 1003.0
20260504020605 64 139 1.0 3.0 0.00 0.00 0.00 59 1003.0
20260504020106 64 175 2.0 6.0 0.00 0.00 0.00 59 1003.0
20260504015605 64 248 1.0 5.0 0.00 0.00 0.00 60 1003.0
20260504015105 64 218 2.0 8.0 0.00 0.00 0.00 60 1003.0
20260504014605 63 225 3.0 6.0 0.00 0.00 0.00 60 1003.0
20260504014105 63 205 3.0 7.0 0.00 0.00 0.00 59 1003.0
20260504013605 63 234 3.0 7.0 0.00 0.00 0.00 57 1003.1
20260504013105 64 235 2.0 8.0 0.00 0.00 0.00 56 1003.4
20260504011607 65 234 3.0 8.0 0.00 0.00 0.00 54 1003.1
20260504011105 65 248 2.0 6.0 0.00 0.00 0.00 54 1003.4
20260504010605 66 159 2.0 5.0 0.00 0.00 0.00 53 1003.4
20260504010105 66 222 2.0 7.0 0.00 0.00 0.00 53 1003.4
20260504005605 66 244 1.0 6.0 0.00 0.00 0.00 54 1003.1
20260504005106 66 236 1.0 7.0 0.00 0.00 0.00 54 1003.1
20260504004605 65 210 1.0 9.0 0.00 0.00 0.00 55 1003.1
20260504004104 65 220 2.0 6.0 0.00 0.00 0.00 55 1003.4
20260504003606 64 192 3.0 10.0 0.00 0.00 0.00 55 1003.0
20260504003106 65 246 4.0 8.0 0.00 0.00 0.00 55 1003.1
20260504002605 66 242 4.0 8.0 0.00 0.00 0.00 54 1003.0
20260504002105 66 205 2.0 6.0 0.00 0.00 0.00 54 1003.0
20260504001605 66 259 3.0 6.0 0.00 0.00 0.00 54 1003.4
20260504000605 66 188 3.0 8.0 0.00 0.00 0.00 54 1003.0
20260504000105 66 190 3.0 8.0 0.00 0.00 0.00 55 1003.0
20260503235105 66 246 5.0 10.0 0.00 0.00 0.00 56 1003.0
20260503234605 65 221 3.0 10.0 0.00 0.00 0.00 57 1003.0
20260503234105 65 178 3.0 9.0 0.00 0.00 0.00 57 1002.7
20260503233606 65 230 5.0 13.0 0.00 0.00 0.00 57 1002.7
20260503233105 65 238 5.0 10.0 0.00 0.00 0.00 57 1002.4
20260503232605 65 232 5.0 12.0 0.00 0.00 0.00 57 1002.7
20260503232105 65 236 6.0 12.0 0.00 0.00 0.00 58 1002.7
20260503231106 65 229 3.0 9.0 0.00 0.00 0.00 57 1002.7
20260503225605 65 191 5.0 10.0 0.00 0.00 0.00 57 1002.7
20260503225104 65 225 5.0 15.0 0.00 0.00 0.00 56 1002.7
20260503224605 66 230 4.0 7.0 0.00 0.00 0.00 56 1002.7
20260503223105 65 178 2.0 10.0 0.00 0.00 0.00 58 1002.7
20260503222105 66 232 5.0 10.0 0.00 0.00 0.00 57 1003.0
20260503221605 66 219 2.0 6.0 0.00 0.00 0.00 57 1003.0
20260503221106 66 335 3.0 7.0 0.00 0.00 0.00 57 1003.0
20260503220605 65 192 3.0 8.0 0.00 0.00 0.00 57 1003.0
20260503220105 65 233 4.0 12.0 0.00 0.00 0.00 58 1003.0
20260503215605 65 230 5.0 10.0 0.00 0.00 0.00 58 1003.0
20260503215105 65 251 4.0 10.0 0.00 0.00 0.00 57 1003.0
20260503214606 65 216 4.0 8.0 0.00 0.00 0.00 56 1003.4
20260503213106 65 198 3.0 9.0 0.00 0.00 0.00 57 1003.1
20260503212606 65 251 4.0 8.0 0.00 0.00 0.00 56 1003.1
20260503212105 66 197 3.0 8.0 0.00 0.00 0.00 56 1003.0
20260503211604 66 161 3.0 8.0 0.00 0.00 0.00 57 1003.0
20260503211105 65 182 3.0 8.0 0.00 0.00 0.00 59 1003.0
20260503210604 64 228 4.0 9.0 0.00 0.00 0.00 59 1003.0
20260503210105 64 326 3.0 9.0 0.00 0.00 0.00 58 1003.0
20260503205605 65 240 3.0 9.0 0.00 0.00 0.00 57 1003.0
20260503205104 66 227 3.0 9.0 0.00 0.00 0.00 56 1003.0
20260503204606 66 153 5.0 8.0 0.00 0.00 0.00 56 1003.0
20260503204105 66 157 3.0 8.0 0.00 0.00 0.00 56 1003.0
20260503203605 66 275 3.0 12.0 0.00 0.00 0.00 56 1003.0
20260503203105 66 195 3.0 12.0 0.00 0.00 0.00 56 1003.0
20260503202605 66 146 2.0 6.0 0.00 0.00 0.00 56 1003.0
20260503202105 66 212 3.0 8.0 0.00 0.00 0.00 54 1003.0
20260503201605 67 223 3.0 10.0 0.00 0.00 0.00 55 1003.0